• En España
  • Lista de países
  • Para 7 días
  • Temperatura del agua
  • Mapa Satelital
  • El tiempo en el mapa
  • Informadores
  • user-avatar
    Iniciar sesión

    Tiempo cada hora Kachanovka

    Hoy, 23 Septiembre, Domingo

    Tiempo Temperatura Precipitaciones Viento Presión Humedad
    00:00 +20°C° 0 mm 6 mps 741 mmHg 53%
    01:00 +19°C° 0 mm 6 mps 740 mmHg 53%
    02:00 +19°C° 0 mm 6 mps 740 mmHg 52%
    03:00 +19°C° 0 mm 6 mps 740 mmHg 52%
    04:00 +17°C° 0.1 mm 6 mps 739 mmHg 55%
    05:00 +17°C° 0.1 mm 6 mps 739 mmHg 58%
    06:00 +16°C° 0.1 mm 5 mps 739 mmHg 62%
    07:00 +15°C° 0.7 mm 6 mps 739 mmHg 69%
    08:00 +13°C° 0.7 mm 6 mps 739 mmHg 76%
    09:00 +11°C° 0.7 mm 7 mps 739 mmHg 84%
    10:00 +10°C° 0.9 mm 6 mps 740 mmHg 84%
    11:00 +10°C° 0.9 mm 6 mps 740 mmHg 84%
    12:00 +9°C° 0.9 mm 5 mps 741 mmHg 84%
    13:00 +10°C° 0 mm 5 mps 741 mmHg 81%
    14:00 +10°C° 0 mm 5 mps 742 mmHg 79%
    15:00 +12°C° 0 mm 4 mps 742 mmHg 76%
    16:00 +12°C° 0 mm 4 mps 742 mmHg 76%
    17:00 +12°C° 0 mm 3 mps 742 mmHg 76%
    18:00 +12°C° 0 mm 3 mps 742 mmHg 77%
    19:00 +11°C° 0 mm 3 mps 742 mmHg 79%
    20:00 +10°C° 0 mm 3 mps 742 mmHg 82%
    21:00 +10°C° 0 mm 3 mps 742 mmHg 85%
    22:00 +9°C° 0 mm 3 mps 742 mmHg 86%
    23:00 +9°C° 0 mm 3 mps 742 mmHg 87%

    Mañana, 24 Septiembre, Lunes

    Tiempo Temperatura Precipitaciones Viento Presión Humedad
    00:00 +9°C° 0 mm 3 mps 742 mmHg 89%
    01:00 +8°C° 0 mm 3 mps 742 mmHg 89%
    02:00 +8°C° 0 mm 3 mps 742 mmHg 90%
    03:00 +8°C° 0 mm 3 mps 742 mmHg 91%
    04:00 +8°C° 0 mm 3 mps 742 mmHg 90%
    05:00 +8°C° 0 mm 3 mps 742 mmHg 90%
    06:00 +8°C° 0 mm 3 mps 742 mmHg 89%
    07:00 +9°C° 0 mm 3 mps 742 mmHg 84%
    08:00 +10°C° 0 mm 3 mps 741 mmHg 79%
    09:00 +11°C° 0 mm 4 mps 741 mmHg 75%
    10:00 +12°C° 0 mm 5 mps 741 mmHg 71%
    11:00 +11°C° 0 mm 6 mps 740 mmHg 68%
    12:00 +13°C° 0 mm 6 mps 740 mmHg 64%
    13:00 +11°C° 0.9 mm 7 mps 739 mmHg 70%
    14:00 +10°C° 0.9 mm 8 mps 738 mmHg 76%
    15:00 +9°C° 0.9 mm 8 mps 737 mmHg 82%
    16:00 +8°C° 1.7 mm 9 mps 736 mmHg 84%
    17:00 +9°C° 1.7 mm 10 mps 734 mmHg 86%
    18:00 +9°C° 1.7 mm 10 mps 733 mmHg 87%
    19:00 +9°C° 1.3 mm 10 mps 731 mmHg 88%
    20:00 +11°C° 1.3 mm 11 mps 730 mmHg 88%
    21:00 +11°C° 1.3 mm 11 mps 729 mmHg 88%
    22:00 +11°C° 0.2 mm 10 mps 729 mmHg 86%
    23:00 +9°C° 0.2 mm 10 mps 728 mmHg 84%

    Pasado mañana, 25 Septiembre, Martes

    Tiempo Temperatura Precipitaciones Viento Presión Humedad
    00:00 +8°C° 0.2 mm 10 mps 728 mmHg 82%
    01:00 +8°C° 0 mm 10 mps 729 mmHg 82%
    02:00 +7°C° 0 mm 9 mps 730 mmHg 82%
    03:00 +7°C° 0 mm 9 mps 730 mmHg 82%
    04:00 +7°C° 0 mm 9 mps 731 mmHg 83%
    05:00 +6°C° 0 mm 8 mps 731 mmHg 83%
    06:00 +6°C° 0 mm 8 mps 732 mmHg 83%
    07:00 +6°C° 0 mm 8 mps 732 mmHg 82%
    08:00 +7°C° 0 mm 9 mps 733 mmHg 81%
    09:00 +7°C° 0 mm 9 mps 733 mmHg 80%
    10:00 +7°C° 0 mm 9 mps 734 mmHg 79%
    11:00 +7°C° 0 mm 8 mps 735 mmHg 77%
    12:00 +7°C° 0 mm 8 mps 736 mmHg 76%
    13:00 +6°C° 0 mm 8 mps 736 mmHg 75%
    14:00 +6°C° 0 mm 8 mps 737 mmHg 75%
    15:00 +6°C° 0 mm 8 mps 738 mmHg 74%
    16:00 +6°C° 0.1 mm 8 mps 738 mmHg 74%
    17:00 +6°C° 0.1 mm 8 mps 739 mmHg 73%
    18:00 +6°C° 0.1 mm 7 mps 740 mmHg 73%
    19:00 +5°C° 0 mm 7 mps 740 mmHg 73%
    20:00 +5°C° 0 mm 6 mps 741 mmHg 74%
    21:00 +4°C° 0 mm 6 mps 741 mmHg 75%
    22:00 +4°C° 0 mm 6 mps 742 mmHg 75%
    23:00 +4°C° 0 mm 6 mps 742 mmHg 76%

    26 Septiembre, Miércoles

    Tiempo Temperatura Precipitaciones Viento Presión Humedad
    00:00 +4°C° 0 mm 6 mps 743 mmHg 76%
    01:00 +4°C° 0 mm 6 mps 743 mmHg 77%
    02:00 +4°C° 0 mm 6 mps 744 mmHg 77%
    03:00 +3°C° 0 mm 6 mps 745 mmHg 77%
    04:00 +3°C° 0 mm 5 mps 745 mmHg 77%
    05:00 +2°C° 0 mm 5 mps 746 mmHg 76%
    06:00 +1°C° 0 mm 5 mps 747 mmHg 76%
    07:00 +2°C° 0 mm 5 mps 747 mmHg 73%
    08:00 +2°C° 0 mm 6 mps 748 mmHg 70%
    09:00 +3°C° 0 mm 6 mps 748 mmHg 67%
    10:00 +4°C° 0 mm 6 mps 749 mmHg 63%
    11:00 +7°C° 0 mm 6 mps 749 mmHg 58%
    12:00 +8°C° 0 mm 6 mps 749 mmHg 54%
    13:00 +8°C° 0 mm 6 mps 749 mmHg 53%
    14:00 +9°C° 0 mm 7 mps 749 mmHg 52%
    15:00 +9°C° 0 mm 7 mps 749 mmHg 51%
    16:00 +9°C° 0 mm 6 mps 749 mmHg 55%
    17:00 +8°C° 0 mm 5 mps 748 mmHg 59%
    18:00 +7°C° 0 mm 4 mps 748 mmHg 63%
    19:00 +7°C° 0 mm 4 mps 748 mmHg 65%
    20:00 +7°C° 0 mm 5 mps 748 mmHg 66%
    21:00 +7°C° 0 mm 6 mps 748 mmHg 68%
    22:00 +7°C° 0.1 mm 6 mps 747 mmHg 71%
    23:00 +7°C° 0.1 mm 6 mps 746 mmHg 74%

    27 Septiembre, Jueves

    Tiempo Temperatura Precipitaciones Viento Presión Humedad
    00:00 +6°C° 0.1 mm 7 mps 746 mmHg 77%
    01:00 +6°C° 0.3 mm 8 mps 745 mmHg 78%
    02:00 +6°C° 0.3 mm 8 mps 745 mmHg 80%
    03:00 +5°C° 0.3 mm 9 mps 744 mmHg 82%
    04:00 +5°C° 0.3 mm 9 mps 743 mmHg 81%
    05:00 +5°C° 0.3 mm 9 mps 742 mmHg 81%
    06:00 +5°C° 0.3 mm 10 mps 742 mmHg 80%
    07:00 +5°C° 0.2 mm 10 mps 741 mmHg 81%
    08:00 +5°C° 0.2 mm 10 mps 741 mmHg 81%
    09:00 +5°C° 0.2 mm 10 mps 740 mmHg 82%
    10:00 +6°C° 0.1 mm 10 mps 740 mmHg 82%
    11:00 +6°C° 0.1 mm 9 mps 740 mmHg 81%
    12:00 +7°C° 0.1 mm 9 mps 740 mmHg 81%
    13:00 +7°C° 0.2 mm 9 mps 740 mmHg 82%
    14:00 +7°C° 0.2 mm 9 mps 739 mmHg 83%
    15:00 +7°C° 0.2 mm 9 mps 739 mmHg 84%
    16:00 +7°C° 0.4 mm 9 mps 738 mmHg 85%
    17:00 +7°C° 0.4 mm 9 mps 738 mmHg 86%
    18:00 +7°C° 0.4 mm 9 mps 738 mmHg 87%
    19:00 +7°C° 0.3 mm 9 mps 737 mmHg 88%
    20:00 +7°C° 0.3 mm 8 mps 737 mmHg 88%
    21:00 +9°C° 0.3 mm 8 mps 737 mmHg 89%
    22:00 +9°C° 0.4 mm 8 mps 737 mmHg 89%
    23:00 +9°C° 0.4 mm 8 mps 736 mmHg 89%

    28 Septiembre, Viernes

    Tiempo Temperatura Precipitaciones Viento Presión Humedad
    00:00 +10°C° 0.4 mm 8 mps 736 mmHg 89%
    01:00 +9°C° 0.4 mm 8 mps 736 mmHg 88%
    02:00 +9°C° 0.4 mm 7 mps 736 mmHg 87%
    03:00 +9°C° 0.4 mm 7 mps 737 mmHg 85%
    04:00 +8°C° 0.1 mm 7 mps 737 mmHg 87%
    05:00 +8°C° 0.1 mm 6 mps 737 mmHg 88%
    06:00 +7°C° 0.1 mm 6 mps 737 mmHg 89%
    07:00 +7°C° 0 mm 6 mps 737 mmHg 86%
    08:00 +8°C° 0 mm 7 mps 738 mmHg 83%
    09:00 +8°C° 0 mm 7 mps 738 mmHg 79%
    10:00 +9°C° 0 mm 7 mps 738 mmHg 73%
    11:00 +10°C° 0 mm 7 mps 738 mmHg 67%
    12:00 +11°C° 0 mm 7 mps 739 mmHg 62%
    13:00 +11°C° 0.1 mm 7 mps 739 mmHg 61%
    14:00 +11°C° 0.1 mm 7 mps 738 mmHg 61%
    15:00 +11°C° 0.1 mm 7 mps 738 mmHg 61%
    16:00 +10°C° 0 mm 6 mps 738 mmHg 63%
    17:00 +9°C° 0 mm 5 mps 738 mmHg 66%
    18:00 +8°C° 0 mm 4 mps 738 mmHg 69%
    19:00 +7°C° 0.1 mm 4 mps 739 mmHg 71%
    20:00 +7°C° 0.1 mm 4 mps 739 mmHg 73%
    21:00 +6°C° 0.1 mm 5 mps 740 mmHg 75%
    22:00 +5°C° 0 mm 5 mps 740 mmHg 74%
    23:00 +5°C° 0 mm 5 mps 741 mmHg 72%
    Mostrar más